IRNSS-1G

Last updated on Sun Jun 21 2026 00:03:06 GMT+0000 (Coordinated Universal Time)

1 41469U 16027A 26171.48404867 -.00000341 00000+0 00000+0 0 9995 2 41469 5.2051 97.4014 0007659 358.4285 116.4925 1.00258765 37211
UTC large
Height (km)
Speed (km/s)
/
Latitude / Longitude
Inclination (degrees)
Orbital Period (minutes)
Azimuth
Elevation
Range (km)
Doppler Factor

Next 0 passes for location: London (51.5072 / 0.1276)

No passes found over London.
IRNSS-1G